Regional Weather Roundup
Issued by NWS Newport/Morehead, NC

Current Version | Previous Version | Text Only | Print | Product List | Glossary Off
Versions: 1 2 3 4 5 6 7 8 9 10 11 12 13 14 15 16 17 18 19 20 21 22 23 24 25 26 27 28 29 30 31 32 33 34 35 36 37 38 39 40 41 42 43 44 45 46 47 48 49 50
365 ASUS42 KMHX 212324 RWRMHX WEATHER ROUNDUP FOR EASTERN NORTH CAROLINA NATIONAL WEATHER SERVICE NEWPORT/MOREHEAD CITY NC 700 PM EDT THU MAY 21 2015 NOTE: "FAIR" INDICATES FEW OR NO CLOUDS BELOW 12,000 FEET WITH NO SIGNIFICANT WEATHER AND/OR OBSTRUCTIONS TO VISIBILITY NCZ015>017-031-032-045>047-102-103-220000- NORTH COAST CITY SKY/WX TMP DP RH WIND PRES REMARKS EDENTON CLOUDY 64 62 91 N14 29.80R ELIZABETH CITY CLOUDY 65 63 93 NW10 29.77R KITTY HAWK HVY RAIN 73 72 96 W5 29.75F MANTEO LGT RAIN 69 68 98 W9 29.76S $$ NCZ045>047-081-094-103-104-220000- CENTRAL COAST CITY SKY/WX TMP DP RH WIND PRES REMARKS FRISCO CLOUDY 74 70 87 S9 29.75F SWANQUARTER N/A 70 N/A N/A NW7 29.74R $$ NCZ095-097-098-100-101-220000- SOUTHERN COAST CITY SKY/WX TMP DP RH WIND PRES REMARKS BEAUFORT N/A 74 71 91 W22 29.78R CEDAR ISLAND N/A 70 N/A N/A SW8G28 29.79S JACKSONVILLE CLOUDY 73 69 87 NW14G22 29.81R PINEY ISLAND LGT RAIN N/A N/A N/A W16G22 29.76R WILMINGTON PTSUNNY 77 70 79 NW10 29.80R $$ NCZ011>013-027>030-043-044-078>080-089-090>093-098-220000- COASTAL PLAIN CITY SKY/WX TMP DP RH WIND PRES REMARKS AHOSKIE CLOUDY 60 58 92 N8 29.86R CLINTON SUNNY 71 65 81 N6 29.85R ELIZABETHTOWN SUNNY 73 64 73 N6 29.84R GOLDSBORO PTSUNNY 66 59 77 N9 29.84R GREENVILLE CLOUDY 63 61 94 NW12 29.88R HAVELOCK TSTM 72 68 87 NW15 29.81R KENANSVILLE PTSUNNY 68 64 86 N8 29.85R KINSTON CLOUDY 64 63 94 N10G17 29.86R NEW BERN LGT RAIN 67 64 90 NW14G22 29.84R RICHLANDS CLOUDY 68 63 83 NW7 29.84R ROCKY MOUNT PTSUNNY 64 58 80 NW15G22 29.87R WASHINGTON CLOUDY N/A N/A N/A NW7 29.85R WHITEVILLE SUNNY 78 65 64 N7 29.82R $$ AMZ130-135-150-152-154-156-158-170-250-252-270-ANZ085-086-088-633-658-670-220000- MARINE OBSERVATIONS STATION/POSITION TIME TEMP WIND PRES WAVE SWELL AIR SEA DIR/SP/G HT/PER HT/PER (UTC) (F) (DEG/KT/KT) (MB) (FT/S) (FT/S) CHESAPEAKE LIGHT 2300 60 20/ 28/ 30 1007.9 64 E VA BEACH 2250 66 62 160/ 16/ 16 1007.0 3/ 4 2/ 9 DUCK 2300 70 67 170/ 13/ 15 1006.2 2 E DUCK 2211 68 N/A 4/ 4 OREGON INLET 2300 72 70 140/ 4/ 7 1007.6 13E OREGON INLT 2300 66 N/A 5/ 6 HATTERAS CG 2300 75 73 170/ 9/ 11 1006.8 DIAMOND BUOY 2250 78 77 190/ 14/ 17 1007.9 4/ 8 2/ 8 CAPE LOOKOUT 2300 76 210/ 11/ 13 1007.5 BEAUFORT LAB 2300 73 77 270/ 7/ 13 1007.9 27 SE WRIGHTSVLE 2300 73 78 280/ 10/ 14 N/A 5 SE WRIGHTSVLE 2208 74 77 320/ 6/ 10 1008.9 225 S CAPE HAT 2250 76 75 210/ 16/ 17 1011.9 4/ 6 2/ 9 41 SE CHARLESTON 2250 78 76 230/ 16/ 17 1008.9 4/ 5 2/ 8 $$

USA.gov is the U.S. government's official web portal to all federal, state and local government web resources and services.